Temperature
22 22 21 21 20 20 20 20 20 19 19 19 18 18 18 18 18 18 18 17 17 17 17 17 17 17 17 17 17 17 17 17 17 17 17 17 17 17 16 16 16 16 16
22 22 21 21 20 20 20 20 19 19 19 19 19 19 18 18 18 18 17 17 17 17 17 17 17 17 17 17 17 17 17 17 17 17 16 16 16 17 17 17 17 16 16
22 22 21 21 21 20 20 20 19 19 19 19 18 18 18 18 17 17 17 17 17 17 17 17 17 17 17 17 17 17 17 17 17 17 17 17 17 17 17 17 17 17 17
22 22 21 21 21 21 20 20 20 19 19 19 18 18 18 18 18 18 18 17 17 17 17 17 17 17 17 17 17 17 17 17 17 17 17 17 17 17 17 17 17 17 17
22 22 22 22 21 21 20 20 19 19 19 18 18 18 18 18 18 18 17 17 17 17 17 17 17 17 17 17 17 17 17 17 17 17 17 17 17 17 17 17 17 17 17
22 22 22 21 21 20 20 20 19 19 19 18 18 18 18 18 18 18 17 17 17 17 17 17 17 17 17 17 17 17 17 17 17 17 17 17 17 17 17 17 17 17 17
22 22 21 21 20 20 20 20 19 19 19 18 18 18 18 18 18 18 17 17 17 17 17 17 17 17 17 17 17 17 17 17 17 17 17 17 17 17 17 17 17 17 16
21 22 21 21 20 20 20 19 19 19 19 18 18 18 18 18 18 17 17 17 17 17 17 17 17 17 17 17 17 16 17 17 17 16 16 16 17 17 17 17 17 17 16
21 21 21 20 20 20 19 19 19 19 18 18 18 18 18 17 17 17 17 17 17 17 17 17 17 17 17 17 17 16 16 16 16 16 16 16 16 16 16 16 16 16 16
21 21 21 20 20 20 19 19 19 18 18 18 18 18 17 17 17 17 17 17 17 17 17 17 17 17 16 16 16 16 16 16 16 16 16 16 16 16 16 16 16 16 16
21 20 21 20 20 19 19 19 18 18 18 18 18 17 17 17 17 17 17 17 17 17 17 17 17 16 16 16 16 16 16 16 16 16 16 16 16 16 16 16 16 16 16
21 20 20 20 20 19 19 19 18 18 18 17 17 17 17 17 17 17 17 17 17 17 17 16 16 16 16 16 16 16 16 16 16 16 16 16 15 15 15 15 16 16 16
20 20 20 20 19 19 19 19 18 18 18 17 17 17 17 17 17 17 17 17 17 16 16 16 16 16 16 16 15 15 15 15 15 15 15 15 15 15 15 15 15 15 15
20 20 20 19 19 19 19 18 18 18 18 17 17 17 17 17 17 17 17 16 16 16 16 16 16 16 15 15 15 15 15 15 15 15 15 15 15 15 15 15 15 15 15
19 20 20 19 19 19 18 18 18 18 17 17 17 17 17 17 17 16 16 16 16 16 16 16 15 15 15 15 15 15 15 15 15 14 14 14 14 14 14 14 14 14 14
20 20 20 19 19 19 18 18 18 18 17 17 17 17 17 16 16 16 16 16 16 16 16 15 15 15 15 15 15 15 14 14 14 14 14 14 14 14 14 14 13 13 13
20 20 20 20 19 19 19 18 18 18 17 17 17 17 16 16 16 16 16 16 16 15 15 15 15 15 15 15 14 14 14 14 14 14 14 13 13 13 13 13 13 12 12
20 20 20 19 19 19 18 18 18 17 17 17 17 16 16 16 16 16 16 15 15 15 15 15 15 14 14 14 14 14 14 14 13 13 13 13 13 12 12 12 12 12 11
21 21 20 19 19 18 18 18 17 17 17 16 16 16 16 16 16 15 15 15 15 15 14 14 14 14 14 14 14 13 13 13 13 12 12 12 12 12 12 12 11 11 10
20 20 19 19 18 18 18 17 17 17 16 16 16 16 15 15 15 15 15 15 14 14 14 14 14 13 13 13 13 13 13 12 12 12 12 11 11 11 11 11 10 10 10
20 19 19 19 18 18 17 17 17 16 16 16 15 15 15 15 15 14 14 14 14 14 13 13 13 13 13 12 12 12 12 12 12 11 11 11 10 10 10 10 9 9 9
19 19 18 18 18 17 17 17 16 16 15 15 15 15 15 14 14 14 14 13 13 13 13 13 12 12 12 12 12 11 11 11 11 11 10 10 9 9 9 9 8 8 8
18 18 18 17 17 16 16 16 16 15 15 15 15 14 14 14 14 13 13 13 12 12 12 12 12 11 11 11 11 11 10 10 10 10 9 9 9 8 8 8 7 7 7
17 17 17 16 16 16 16 16 15 15 15 14 14 14 14 13 13 13 12 12 12 12 12 12 11 11 11 11 10 10 10 10 9 9 8 8 8 7 7 7 6 6 6
17 16 16 16 16 15 15 15 15 14 14 14 13 13 13 13 12 12 12 12 12 12 12 11 11 11 10 10 10 10 9 9 9 8 8 7 7 7 6 6 6 5 5
16 16 15 15 15 15 15 14 14 14 14 14 13 13 12 12 12 12 11 11 11 11 11 10 10 10 10 9 9 9 9 8 8 8 7 7 6 6 6 5 5 5 5
Wind_Speed
7 6 8 9 10 10 10 11 10 10 9 7 7 6 5 5 5 6 10 11 11 11 9 6 5 6 5 5 5 3 3 2 2 3 2 1 0 2 3 4 4 6 7
6 7 8 9 10 11 11 10 10 10 10 8 6 4 4 4 4 4 7 11 11 11 10 7 5 6 5 5 5 4 3 2 3 3 2 0 2 1 2 3 4 5 6
10 9 9 10 10 11 12 12 11 10 10 8 5 4 3 3 3 4 5 7 11 12 10 9 7 6 6 6 6 6 6 4 2 2 3 3 3 2 1 2 3 4 4
7 7 8 9 10 11 11 10 10 10 9 9 9 9 7 6 6 5 5 6 9 10 11 10 9 7 6 6 7 6 5 5 3 2 1 2 3 3 1 1 1 2 3
8 8 9 9 9 9 10 9 9 9 9 9 10 9 6 5 4 4 6 6 5 8 9 9 8 7 6 6 6 6 6 5 5 4 3 2 1 1 2 2 1 1 1
7 7 6 7 6 7 8 8 9 8 9 9 9 9 8 7 6 6 6 6 4 4 6 8 8 7 6 7 6 6 7 6 5 4 4 4 3 3 3 3 2 1 1
6 7 7 7 7 8 8 8 8 8 8 9 8 9 8 8 8 7 7 6 5 5 6 6 6 6 7 7 7 6 6 7 6 6 5 4 4 3 4 3 2 1 1
5 6 7 7 7 7 7 8 9 8 8 8 8 7 8 6 6 7 6 7 6 6 6 7 7 7 7 7 7 6 6 6 6 7 6 4 4 4 4 4 4 2 0
5 6 6 7 7 8 7 8 8 7 7 8 7 7 7 7 7 6 5 5 5 5 6 7 7 7 7 7 6 5 6 6 6 6 6 5 4 4 4 4 4 5 3
6 6 6 6 6 6 6 6 6 6 6 6 6 6 6 6 6 6 6 6 6 5 5 6 6 6 6 6 6 5 5 6 6 5 6 5 4 4 4 4 3 4 4
7 7 6 6 5 5 5 5 5 4 4 5 4 4 4 5 5 5 5 5 5 5 5 6 6 6 6 5 5 5 6 6 5 5 6 5 4 4 4 3 3 4 4
7 7 7 6 5 5 5 5 5 5 4 4 4 4 3 4 4 4 4 4 5 5 6 5 5 6 5 5 6 6 5 6 6 5 5 5 4 4 4 4 4 4 4
7 6 6 6 6 5 5 5 4 4 4 4 4 3 3 3 3 3 3 4 4 4 4 5 5 5 5 5 5 6 5 5 5 5 5 5 5 5 3 4 4 3 4
7 7 6 5 6 6 5 5 4 4 4 4 4 3 3 3 2 2 2 3 3 3 4 4 4 4 4 4 5 5 5 5 4 4 4 5 5 5 5 4 4 4 5
8 7 7 6 6 6 5 5 4 4 4 5 4 3 2 3 3 2 2 2 3 3 3 3 3 3 3 4 4 4 5 5 4 3 2 2 3 4 4 4 4 5 5
9 8 7 7 7 6 6 5 4 4 5 5 4 3 3 4 3 3 3 3 3 3 3 3 3 2 2 3 5 5 5 4 5 4 4 4 5 7 8 8 8 7 6
10 9 9 8 7 7 6 6 5 5 6 5 4 4 4 4 3 4 4 4 3 4 4 3 3 3 2 4 6 7 6 6 5 5 5 5 6 8 8 11 13 12 10
11 10 8 8 6 6 6 6 6 6 6 5 4 4 4 4 4 4 4 3 3 4 4 4 4 4 4 6 7 9 7 7 6 5 6 7 6 7 10 11 12 11 10
9 9 8 7 7 7 7 7 7 6 5 5 4 4 4 5 4 4 4 3 4 4 4 4 5 5 5 7 9 10 7 7 7 7 7 8 8 11 14 13 13 12 11
7 8 8 8 8 7 7 7 6 6 5 4 4 4 4 5 4 4 4 4 4 5 5 5 5 5 5 7 9 9 7 8 7 7 7 9 10 13 13 12 12 12 9
8 8 9 8 7 7 8 8 6 5 4 5 5 5 5 5 5 4 4 5 5 6 6 6 6 6 6 7 9 9 7 8 8 7 6 7 13 14 13 12 10 12 10
8 8 8 6 5 6 8 7 6 4 5 6 6 5 5 4 4 5 5 5 6 6 6 6 6 5 5 7 8 10 10 10 9 8 7 8 13 14 14 11 13 14 11
9 8 8 7 5 4 6 7 5 5 6 6 6 5 5 5 4 5 5 5 5 5 5 5 5 5 4 6 10 11 12 12 8 8 12 13 14 13 12 14 14 11 8
8 8 8 7 5 4 4 5 5 6 6 6 6 5 5 5 5 4 4 4 4 5 5 5 5 5 4 4 5 6 8 11 11 10 13 15 14 12 11 10 9 7 7
6 7 8 7 5 5 5 5 5 6 7 6 6 5 5 5 5 5 4 4 3 3 5 5 5 6 5 4 7 7 7 7 9 10 8 8 7 7 7 7 6 6 6
7 7 7 6 6 6 5 4 4 5 7 6 5 4 4 5 5 6 7 11 9 10 8 6 6 5 7 10 11 11 12 13 13 11 8 7 7 7 7 6 6 5 5
Wind_Direction
199 172 169 170 170 171 177 181 184 178 172 172 175 179 189 186 185 193 190 187 189 190 187 192 183 178 180 184 172 148 145 138 132 111 76 20 349 222 229 235 231 230 227
175 172 168 173 179 179 183 187 190 182 181 185 180 175 166 175 179 184 187 189 191 192 193 188 183 184 177 175 175 159 150 162 160 140 120 22 335 303 246 233 230 235 230
186 181 176 177 178 183 188 194 193 187 185 174 154 134 116 109 151 183 191 194 196 196 195 191 187 185 182 187 187 178 167 170 179 164 151 161 215 258 294 249 236 231 223
180 178 172 178 183 188 188 187 183 184 183 171 173 173 180 183 190 189 190 189 196 196 196 192 190 187 188 190 194 187 178 161 172 180 190 173 160 164 235 303 263 237 234
172 176 180 183 182 180 180 179 175 180 181 179 184 185 189 187 173 170 178 189 198 200 197 194 191 189 193 195 192 181 182 177 176 176 170 161 135 148 164 229 291 321 272
161 163 162 159 159 162 166 168 171 180 180 181 183 187 187 180 174 181 188 194 195 200 199 196 194 193 194 196 197 190 186 190 185 184 178 171 168 184 179 200 224 238 296
149 148 150 156 156 158 163 166 174 183 182 183 186 189 190 187 191 191 195 193 192 202 207 202 197 196 198 195 190 189 194 194 191 193 198 195 195 169 168 173 191 207 275
141 149 154 154 155 159 165 170 180 187 183 185 192 191 189 192 199 199 196 198 202 205 201 199 199 198 195 194 187 193 200 196 199 202 196 197 203 188 182 175 167 172 225
141 139 142 149 156 160 171 181 182 183 184 188 188 189 190 193 199 200 196 201 204 204 197 197 199 200 193 190 184 195 201 195 200 200 196 200 205 198 199 189 179 174 197
137 135 140 149 152 152 157 163 164 173 176 177 183 188 189 196 196 190 194 200 203 197 187 192 196 198 196 190 186 194 199 194 200 194 191 201 204 200 197 198 196 188 186
150 145 145 146 139 131 138 143 146 148 154 167 174 177 185 186 185 193 199 199 197 192 189 192 193 193 194 188 187 197 194 194 197 195 194 204 198 193 192 187 185 186 175
148 146 142 134 133 136 140 140 143 148 157 157 158 169 170 166 178 194 198 191 194 194 190 186 190 196 196 192 191 200 198 192 192 194 192 203 199 197 192 188 191 189 182
145 144 140 139 142 140 136 135 140 147 144 141 145 148 152 160 176 191 193 189 190 189 183 182 189 194 194 194 195 195 191 187 187 189 193 198 190 197 195 187 188 184 171
151 147 146 145 142 136 134 131 128 134 136 136 139 143 149 155 167 165 168 175 168 168 175 178 185 187 183 184 186 183 179 173 172 182 191 193 191 193 184 176 172 157 142
156 155 155 152 143 135 133 131 125 120 121 117 116 123 118 113 118 127 134 135 142 151 150 156 168 174 177 188 181 175 168 161 150 140 142 150 145 151 151 156 154 149 143
167 164 156 151 146 143 142 136 123 115 112 112 108 101 102 98 96 98 102 109 115 116 118 128 139 148 172 159 156 149 142 139 136 127 112 102 99 101 99 100 106 118 137
171 170 165 160 155 152 149 143 132 120 116 114 109 102 105 103 95 95 94 98 100 103 105 106 106 105 105 125 132 132 131 127 127 126 120 108 99 101 103 92 83 78 85
171 169 164 157 152 144 136 132 125 123 121 115 112 107 105 103 99 97 94 91 94 96 97 97 104 102 89 103 117 118 112 108 103 102 108 110 101 102 110 102 87 75 65
168 163 158 148 144 142 138 131 128 126 122 122 120 119 118 111 104 100 95 93 97 92 86 87 93 96 86 94 108 115 109 101 92 88 91 103 103 104 107 104 100 91 81
144 144 137 130 138 142 135 132 136 135 139 140 131 122 121 120 114 106 97 94 101 100 95 84 83 93 92 94 105 113 115 110 102 90 86 91 104 108 107 110 110 106 100
128 131 131 136 143 142 138 139 139 145 147 134 122 116 117 120 118 111 104 104 108 104 98 92 81 80 87 93 98 106 115 119 113 104 95 93 102 103 101 103 107 113 110
121 124 123 119 120 136 142 141 144 142 134 129 123 118 116 118 118 117 112 110 115 112 107 101 88 73 78 93 100 102 106 116 117 115 110 105 103 100 98 97 102 104 102
124 120 123 119 110 118 137 141 139 130 130 128 125 119 111 106 109 118 119 113 113 117 117 114 108 95 85 88 94 100 105 109 108 109 110 106 102 97 93 96 101 102 104
122 122 123 124 120 112 114 125 128 128 128 127 124 119 114 107 100 102 110 118 125 129 128 127 124 115 108 110 112 109 106 102 103 105 103 97 91 89 90 92 90 88 96
116 123 127 127 124 116 107 107 120 128 127 124 121 117 114 114 103 90 78 98 95 134 143 145 146 142 140 140 133 131 125 123 120 117 107 102 102 99 95 91 87 91 97
118 117 117 120 118 115 108 105 114 127 129 128 126 122 117 115 117 113 88 64 74 81 89 105 125 119 121 122 117 112 113 116 121 115 116 115 114 114 113 110 102 95 100
Height
1505 1509 1512 1515 1519 1523 1526 1529 1533 1536 1539 1542 1544 1547 1549 1552 1555 1558 1561 1563 1566 1568 1570 1572 1574 1576 1578 1580 1581 1583 1584 1586 1587 1588 1589 1590 1590 1591 1592 1593 1593 1594 1595
1504 1506 1510 1513 1517 1520 1523 1526 1530 1533 1537 1540 1543 1545 1548 1550 1553 1556 1559 1561 1564 1566 1568 1571 1573 1575 1576 1578 1580 1581 1583 1584 1585 1587 1588 1588 1590 1589 1590 1591 1592 1592 1593
1501 1503 1506 1509 1513 1516 1520 1523 1527 1531 1535 1538 1541 1544 1547 1549 1551 1554 1556 1559 1561 1564 1566 1569 1571 1573 1574 1576 1578 1579 1581 1582 1584 1585 1586 1587 1587 1588 1589 1589 1590 1590 1591
1499 1501 1503 1506 1509 1512 1516 1521 1525 1528 1532 1536 1539 1541 1543 1545 1548 1551 1554 1556 1559 1561 1564 1566 1568 1570 1572 1574 1576 1577 1579 1580 1582 1583 1584 1585 1585 1586 1586 1587 1588 1588 1589
1497 1499 1502 1504 1507 1511 1514 1518 1522 1526 1530 1533 1536 1539 1541 1544 1547 1549 1551 1554 1557 1559 1561 1563 1565 1567 1569 1571 1573 1575 1576 1578 1579 1580 1582 1583 1583 1584 1585 1585 1586 1587 1587
1496 1499 1501 1504 1506 1510 1513 1517 1520 1524 1527 1530 1533 1536 1539 1541 1544 1546 1548 1551 1554 1556 1558 1560 1562 1564 1566 1568 1570 1572 1574 1575 1577 1578 1579 1580 1581 1582 1583 1583 1584 1584 1585
1496 1497 1500 1503 1506 1509 1512 1515 1519 1522 1525 1528 1530 1533 1536 1539 1541 1543 1545 1548 1550 1552 1554 1557 1558 1560 1562 1564 1566 1568 1570 1572 1573 1574 1576 1577 1578 1579 1580 1581 1581 1582 1583
1496 1498 1499 1503 1506 1508 1511 1514 1517 1520 1523 1525 1528 1530 1533 1535 1538 1540 1542 1545 1547 1549 1551 1553 1555 1557 1559 1561 1563 1564 1566 1568 1570 1571 1572 1574 1575 1576 1577 1578 1579 1580 1580
1496 1498 1500 1503 1505 1508 1510 1513 1517 1519 1521 1523 1526 1528 1530 1533 1535 1537 1539 1541 1543 1546 1548 1549 1551 1553 1555 1557 1559 1560 1562 1564 1566 1567 1569 1570 1571 1572 1574 1575 1576 1578 1577
1496 1498 1501 1503 1506 1509 1511 1513 1516 1518 1520 1522 1524 1526 1528 1530 1531 1533 1535 1537 1539 1541 1543 1545 1547 1549 1551 1553 1555 1556 1558 1560 1561 1563 1564 1566 1567 1569 1570 1571 1572 1573 1574
1495 1498 1501 1503 1506 1509 1511 1513 1516 1517 1519 1521 1522 1524 1525 1527 1528 1530 1532 1533 1536 1537 1539 1541 1543 1544 1546 1548 1550 1552 1554 1555 1557 1559 1560 1561 1563 1564 1566 1567 1568 1569 1570
1495 1498 1500 1503 1506 1508 1511 1513 1515 1517 1518 1519 1521 1522 1523 1525 1526 1527 1529 1530 1532 1533 1535 1537 1539 1541 1542 1544 1545 1547 1549 1551 1552 1554 1555 1557 1558 1560 1561 1563 1564 1565 1566
1494 1497 1500 1502 1505 1508 1510 1512 1514 1516 1517 1518 1519 1520 1521 1522 1524 1525 1526 1527 1529 1530 1531 1533 1535 1537 1538 1540 1541 1543 1544 1546 1548 1549 1551 1552 1554 1555 1557 1558 1559 1560 1562
1493 1496 1499 1502 1504 1507 1510 1512 1513 1515 1516 1517 1518 1519 1520 1521 1522 1523 1524 1525 1526 1527 1528 1530 1532 1533 1535 1536 1538 1539 1540 1542 1543 1545 1547 1548 1550 1551 1552 1554 1555 1556 1558
1493 1495 1498 1501 1504 1506 1509 1511 1513 1514 1515 1516 1517 1518 1519 1520 1521 1522 1523 1523 1524 1525 1526 1527 1529 1530 1531 1533 1534 1536 1537 1538 1539 1541 1543 1544 1546 1547 1549 1550 1551 1553 1554
1492 1495 1498 1501 1503 1506 1509 1511 1512 1514 1515 1516 1517 1518 1519 1520 1520 1521 1522 1522 1523 1524 1525 1526 1527 1528 1529 1530 1531 1533 1534 1535 1536 1538 1539 1541 1542 1544 1545 1547 1548 1550 1551
1490 1494 1497 1500 1503 1505 1508 1510 1512 1513 1515 1516 1517 1518 1519 1519 1520 1521 1521 1522 1522 1523 1524 1524 1526 1526 1527 1528 1529 1530 1531 1532 1534 1535 1537 1538 1539 1540 1542 1544 1545 1547 1548
1489 1493 1497 1500 1503 1505 1508 1510 1511 1513 1514 1515 1516 1517 1518 1519 1520 1520 1521 1522 1522 1523 1523 1524 1525 1526 1526 1527 1527 1528 1530 1531 1532 1533 1535 1536 1537 1538 1540 1541 1543 1545 1546
1488 1492 1496 1500 1503 1505 1507 1509 1510 1512 1513 1515 1516 1517 1518 1518 1519 1520 1520 1521 1522 1522 1523 1523 1524 1525 1525 1526 1527 1527 1528 1529 1531 1532 1534 1535 1536 1538 1539 1540 1541 1543 1545
1489 1493 1496 1499 1502 1504 1506 1508 1509 1511 1512 1514 1515 1516 1517 1518 1518 1519 1520 1520 1521 1522 1522 1523 1524 1524 1525 1526 1527 1527 1528 1529 1530 1532 1534 1535 1536 1537 1538 1539 1541 1542 1544
1488 1492 1495 1498 1501 1503 1505 1507 1508 1510 1512 1513 1514 1515 1516 1517 1518 1518 1519 1520 1520 1521 1522 1522 1523 1524 1525 1526 1527 1528 1528 1529 1530 1532 1533 1535 1537 1538 1539 1540 1542 1544 1546
1488 1491 1494 1497 1500 1502 1504 1506 1507 1509 1510 1511 1513 1514 1515 1516 1517 1517 1518 1519 1520 1520 1521 1522 1523 1524 1525 1526 1527 1528 1529 1530 1531 1532 1534 1536 1537 1539 1540 1541 1543 1545 1547
1487 1491 1494 1497 1499 1501 1503 1504 1506 1507 1509 1510 1511 1512 1513 1514 1515 1516 1517 1518 1519 1519 1520 1521 1522 1523 1525 1526 1527 1528 1529 1530 1531 1533 1535 1537 1539 1540 1541 1543 1545 1546 1548
1486 1489 1493 1495 1498 1500 1502 1503 1505 1506 1507 1508 1510 1511 1512 1513 1514 1515 1516 1517 1518 1519 1520 1521 1522 1523 1524 1526 1527 1528 1529 1531 1532 1534 1536 1538 1539 1541 1543 1544 1546 1548 1549
1486 1489 1491 1494 1496 1498 1500 1502 1503 1504 1506 1507 1508 1509 1511 1512 1513 1514 1515 1516 1517 1518 1519 1520 1522 1523 1524 1526 1528 1528 1530 1531 1532 1534 1536 1538 1540 1542 1544 1546 1547 1549 1550
1486 1489 1491 1494 1496 1497 1499 1501 1502 1503 1504 1505 1506 1508 1509 1510 1511 1513 1514 1515 1516 1518 1519 1520 1521 1523 1525 1526 1528 1529 1530 1532 1534 1535 1536 1538 1541 1543 1545 1547 1549 1551 1552